GEFSMA_prec_meanprecacc_096.txt.gz
Total_Precipitation_Accumulation
0.10 0.07 0.05 0.04 0.02 0.01 0.00 0.00 0.00 0.00 0.00 0.00 0.00 0.00 0.00 0.00 0.00 0.00 0.00 0.00 0.00 0.01 0.02 0.03 0.06 0.09 0.11 0.13 0.14 0.15 0.11 0.06 0.04 0.03 0.01 0.01 0.01 0.01 0.01 0.00 0.01 0.01 0.02
0.15 0.11 0.06 0.03 0.02 0.01 0.00 0.00 0.00 0.00 0.00 0.00 0.00 0.00 0.00 0.00 0.00 0.00 0.00 0.00 0.00 0.00 0.01 0.03 0.06 0.09 0.13 0.18 0.20 0.20 0.17 0.13 0.10 0.07 0.05 0.03 0.02 0.02 0.02 0.01 0.01 0.01 0.01
0.16 0.14 0.10 0.05 0.03 0.02 0.01 0.01 0.01 0.00 0.00 0.00 0.00 0.00 0.00 0.00 0.00 0.00 0.00 0.00 0.00 0.00 0.00 0.02 0.05 0.09 0.15 0.18 0.21 0.24 0.24 0.19 0.13 0.10 0.08 0.07 0.06 0.04 0.03 0.03 0.02 0.01 0.01
0.21 0.16 0.12 0.09 0.07 0.06 0.04 0.04 0.03 0.02 0.02 0.01 0.01 0.01 0.02 0.01 0.01 0.00 0.00 0.00 0.00 0.00 0.00 0.01 0.03 0.07 0.11 0.13 0.17 0.23 0.26 0.23 0.15 0.12 0.10 0.09 0.08 0.07 0.06 0.05 0.04 0.03 0.02
0.30 0.24 0.17 0.14 0.12 0.10 0.09 0.09 0.07 0.06 0.05 0.05 0.05 0.04 0.03 0.02 0.02 0.01 0.01 0.01 0.01 0.01 0.01 0.01 0.01 0.02 0.04 0.05 0.10 0.17 0.24 0.26 0.21 0.16 0.14 0.13 0.12 0.11 0.09 0.09 0.09 0.07 0.06
0.43 0.36 0.26 0.22 0.18 0.13 0.11 0.11 0.12 0.12 0.10 0.10 0.09 0.05 0.04 0.03 0.02 0.01 0.01 0.02 0.02 0.02 0.02 0.01 0.01 0.02 0.02 0.04 0.05 0.10 0.16 0.21 0.22 0.20 0.18 0.18 0.18 0.17 0.16 0.16 0.16 0.15 0.14
0.59 0.52 0.40 0.32 0.28 0.21 0.17 0.20 0.21 0.18 0.16 0.18 0.14 0.07 0.04 0.03 0.02 0.02 0.02 0.03 0.02 0.03 0.03 0.03 0.03 0.02 0.02 0.03 0.03 0.06 0.10 0.15 0.21 0.24 0.23 0.22 0.22 0.22 0.23 0.24 0.25 0.25 0.22
0.81 0.72 0.63 0.56 0.50 0.42 0.33 0.29 0.28 0.24 0.23 0.26 0.23 0.18 0.08 0.04 0.03 0.04 0.04 0.03 0.03 0.04 0.04 0.05 0.04 0.03 0.03 0.02 0.02 0.03 0.06 0.10 0.18 0.26 0.30 0.28 0.27 0.27 0.29 0.32 0.35 0.35 0.33
1.08 0.96 0.88 0.84 0.75 0.62 0.51 0.47 0.46 0.41 0.37 0.35 0.32 0.31 0.19 0.09 0.07 0.05 0.04 0.04 0.04 0.04 0.04 0.05 0.04 0.04 0.03 0.03 0.03 0.03 0.05 0.07 0.13 0.24 0.33 0.35 0.34 0.35 0.39 0.42 0.45 0.48 0.47
1.23 1.18 1.12 1.04 0.97 0.85 0.71 0.65 0.62 0.59 0.53 0.45 0.39 0.32 0.30 0.22 0.18 0.11 0.06 0.06 0.05 0.04 0.05 0.06 0.06 0.05 0.05 0.04 0.05 0.06 0.07 0.08 0.13 0.22 0.33 0.45 0.50 0.51 0.55 0.58 0.61 0.66 0.67
1.20 1.16 1.13 1.06 0.98 0.90 0.84 0.78 0.72 0.67 0.58 0.52 0.46 0.43 0.41 0.31 0.23 0.21 0.13 0.08 0.08 0.08 0.07 0.07 0.07 0.07 0.07 0.08 0.08 0.10 0.13 0.14 0.18 0.25 0.36 0.50 0.64 0.72 0.75 0.77 0.77 0.78 0.78
1.19 1.13 1.10 1.03 0.95 0.88 0.84 0.83 0.80 0.75 0.67 0.59 0.51 0.48 0.46 0.40 0.31 0.28 0.26 0.18 0.15 0.12 0.10 0.09 0.09 0.09 0.10 0.11 0.14 0.20 0.23 0.24 0.28 0.36 0.47 0.60 0.72 0.80 0.85 0.89 0.92 0.92 0.89
1.10 1.07 1.09 1.06 1.02 0.98 0.99 0.95 0.89 0.82 0.77 0.69 0.60 0.52 0.48 0.44 0.39 0.38 0.38 0.30 0.23 0.17 0.14 0.14 0.14 0.15 0.17 0.19 0.25 0.35 0.37 0.40 0.42 0.49 0.62 0.73 0.77 0.78 0.78 0.83 0.96 1.04 1.04
1.05 1.06 1.05 1.04 1.04 1.01 0.97 0.94 0.91 0.86 0.81 0.76 0.70 0.61 0.53 0.46 0.44 0.45 0.47 0.50 0.48 0.37 0.30 0.28 0.27 0.30 0.33 0.38 0.46 0.53 0.50 0.57 0.59 0.65 0.77 0.90 0.86 0.76 0.70 0.72 0.78 0.87 0.88
1.02 0.99 0.97 0.91 0.88 0.87 0.86 0.84 0.83 0.80 0.75 0.70 0.65 0.62 0.57 0.53 0.53 0.54 0.59 0.67 0.78 0.76 0.62 0.51 0.49 0.51 0.54 0.57 0.64 0.60 0.56 0.68 0.72 0.74 0.78 0.78 0.70 0.62 0.60 0.61 0.63 0.65 0.65
0.83 0.88 0.89 0.85 0.78 0.75 0.74 0.73 0.70 0.67 0.65 0.60 0.57 0.57 0.57 0.56 0.59 0.61 0.65 0.70 0.78 0.86 0.82 0.64 0.57 0.60 0.66 0.68 0.73 0.63 0.58 0.66 0.64 0.65 0.65 0.61 0.55 0.51 0.48 0.46 0.45 0.45 0.47
0.64 0.68 0.75 0.77 0.72 0.66 0.62 0.58 0.54 0.53 0.51 0.49 0.47 0.48 0.49 0.49 0.53 0.57 0.60 0.66 0.74 0.84 0.92 0.82 0.73 0.73 0.73 0.69 0.64 0.53 0.46 0.44 0.43 0.48 0.45 0.41 0.38 0.36 0.34 0.33 0.34 0.37 0.38
0.61 0.60 0.58 0.58 0.58 0.56 0.54 0.51 0.47 0.44 0.42 0.41 0.40 0.41 0.42 0.43 0.46 0.50 0.56 0.63 0.70 0.76 0.79 0.75 0.67 0.61 0.55 0.46 0.40 0.33 0.27 0.24 0.22 0.27 0.25 0.23 0.22 0.20 0.18 0.19 0.21 0.23 0.24
0.46 0.49 0.48 0.47 0.43 0.41 0.40 0.40 0.40 0.41 0.40 0.38 0.39 0.41 0.42 0.44 0.46 0.49 0.55 0.60 0.63 0.62 0.58 0.52 0.45 0.39 0.33 0.28 0.23 0.18 0.14 0.11 0.09 0.11 0.11 0.10 0.09 0.08 0.08 0.10 0.11 0.12 0.12
0.26 0.29 0.31 0.33 0.35 0.36 0.35 0.33 0.33 0.36 0.39 0.41 0.43 0.46 0.49 0.54 0.58 0.61 0.61 0.59 0.55 0.49 0.43 0.37 0.33 0.28 0.22 0.17 0.13 0.11 0.08 0.06 0.04 0.03 0.04 0.04 0.03 0.03 0.03 0.03 0.04 0.05 0.07
0.12 0.16 0.21 0.25 0.28 0.31 0.34 0.35 0.35 0.36 0.38 0.41 0.47 0.51 0.57 0.65 0.67 0.60 0.51 0.43 0.36 0.32 0.32 0.31 0.27 0.20 0.14 0.11 0.08 0.06 0.06 0.05 0.03 0.02 0.02 0.02 0.01 0.01 0.01 0.01 0.02 0.04 0.05
0.11 0.12 0.15 0.20 0.24 0.27 0.38 0.38 0.34 0.36 0.42 0.46 0.49 0.51 0.54 0.55 0.49 0.45 0.38 0.32 0.29 0.31 0.30 0.24 0.17 0.12 0.08 0.06 0.05 0.06 0.07 0.08 0.05 0.01 0.01 0.01 0.01 0.01 0.01 0.01 0.01 0.03 0.05
0.18 0.19 0.20 0.22 0.25 0.33 0.44 0.44 0.47 0.43 0.46 0.48 0.46 0.42 0.38 0.36 0.34 0.26 0.26 0.26 0.25 0.23 0.18 0.14 0.11 0.07 0.05 0.05 0.08 0.10 0.10 0.10 0.07 0.02 0.02 0.01 0.01 0.01 0.01 0.01 0.02 0.02 0.04
0.36 0.36 0.36 0.36 0.39 0.47 0.53 0.50 0.48 0.43 0.41 0.39 0.34 0.28 0.23 0.20 0.19 0.19 0.19 0.20 0.15 0.11 0.09 0.07 0.06 0.05 0.05 0.06 0.08 0.12 0.11 0.08 0.04 0.02 0.01 0.01 0.01 0.00 0.00 0.01 0.01 0.02 0.03
0.63 0.62 0.62 0.60 0.57 0.55 0.50 0.41 0.34 0.30 0.27 0.24 0.20 0.16 0.13 0.11 0.13 0.15 0.14 0.12 0.10 0.08 0.08 0.08 0.08 0.07 0.07 0.07 0.06 0.06 0.06 0.09 0.06 0.01 0.01 0.01 0.00 0.00 0.00 0.00 0.01 0.02 0.02
0.61 0.58 0.56 0.51 0.45 0.38 0.32 0.23 0.18 0.15 0.14 0.12 0.10 0.10 0.11 0.10 0.13 0.17 0.13 0.10 0.08 0.07 0.08 0.08 0.07 0.06 0.05 0.05 0.05 0.03 0.05 0.16 0.17 0.09 0.01 0.03 0.04 0.05 0.10 0.01 0.00 0.01 0.01

GEFSMA_prec_meanprecacc_102.txt.gz
Total_Precipitation_Accumulation
0.20 0.17 0.15 0.13 0.10 0.08 0.06 0.04 0.02 0.02 0.01 0.00 0.00 0.00 0.00 0.00 0.00 0.00 0.00 0.00 0.00 0.01 0.02 0.03 0.07 0.10 0.12 0.14 0.16 0.16 0.12 0.07 0.04 0.03 0.01 0.01 0.01 0.01 0.01 0.01 0.01 0.01 0.02
0.28 0.24 0.18 0.15 0.11 0.08 0.05 0.04 0.03 0.02 0.01 0.00 0.00 0.00 0.00 0.00 0.00 0.00 0.00 0.00 0.00 0.00 0.01 0.03 0.07 0.11 0.15 0.19 0.21 0.22 0.18 0.14 0.11 0.08 0.05 0.04 0.03 0.02 0.02 0.01 0.01 0.01 0.01
0.29 0.27 0.23 0.18 0.14 0.12 0.09 0.06 0.04 0.02 0.01 0.01 0.00 0.00 0.00 0.00 0.00 0.00 0.00 0.00 0.00 0.00 0.01 0.02 0.05 0.10 0.16 0.20 0.24 0.26 0.25 0.20 0.14 0.11 0.09 0.08 0.06 0.05 0.03 0.03 0.02 0.02 0.01
0.34 0.31 0.26 0.22 0.20 0.18 0.16 0.12 0.08 0.05 0.03 0.02 0.01 0.01 0.02 0.01 0.01 0.00 0.00 0.00 0.00 0.00 0.00 0.01 0.04 0.08 0.12 0.14 0.19 0.25 0.28 0.24 0.16 0.12 0.11 0.10 0.09 0.08 0.07 0.05 0.05 0.03 0.03
0.41 0.38 0.31 0.28 0.24 0.21 0.20 0.18 0.13 0.09 0.07 0.06 0.05 0.04 0.03 0.02 0.02 0.01 0.01 0.01 0.01 0.01 0.01 0.01 0.01 0.02 0.04 0.06 0.11 0.19 0.27 0.27 0.21 0.16 0.14 0.13 0.12 0.11 0.10 0.09 0.09 0.07 0.06
0.52 0.46 0.39 0.36 0.31 0.24 0.20 0.19 0.19 0.16 0.13 0.12 0.10 0.05 0.04 0.03 0.02 0.01 0.01 0.02 0.02 0.02 0.02 0.01 0.01 0.02 0.02 0.04 0.06 0.11 0.18 0.22 0.23 0.20 0.18 0.18 0.18 0.17 0.17 0.16 0.16 0.16 0.14
0.68 0.62 0.52 0.45 0.42 0.34 0.27 0.27 0.28 0.24 0.22 0.21 0.16 0.07 0.04 0.03 0.02 0.02 0.02 0.03 0.03 0.03 0.03 0.03 0.03 0.03 0.02 0.03 0.04 0.07 0.11 0.16 0.22 0.25 0.24 0.23 0.22 0.22 0.23 0.25 0.26 0.25 0.23
0.89 0.82 0.75 0.69 0.64 0.56 0.46 0.40 0.37 0.32 0.30 0.31 0.27 0.20 0.09 0.04 0.03 0.04 0.04 0.04 0.04 0.04 0.04 0.05 0.05 0.04 0.03 0.03 0.03 0.04 0.06 0.12 0.20 0.27 0.30 0.29 0.28 0.28 0.30 0.33 0.35 0.35 0.33
1.15 1.04 0.98 0.96 0.89 0.77 0.65 0.59 0.56 0.51 0.47 0.43 0.38 0.35 0.21 0.10 0.07 0.05 0.04 0.04 0.04 0.04 0.05 0.06 0.05 0.05 0.04 0.03 0.03 0.04 0.06 0.08 0.15 0.26 0.35 0.36 0.35 0.36 0.39 0.42 0.46 0.48 0.47
1.30 1.25 1.21 1.15 1.08 0.99 0.85 0.77 0.73 0.68 0.62 0.53 0.46 0.37 0.33 0.24 0.19 0.12 0.06 0.06 0.06 0.05 0.06 0.06 0.07 0.07 0.07 0.07 0.07 0.08 0.08 0.09 0.14 0.24 0.36 0.48 0.53 0.53 0.56 0.59 0.62 0.67 0.67
1.28 1.25 1.23 1.18 1.08 1.01 0.95 0.89 0.84 0.78 0.68 0.60 0.54 0.50 0.46 0.35 0.26 0.23 0.15 0.09 0.09 0.08 0.09 0.09 0.09 0.10 0.10 0.10 0.10 0.12 0.14 0.15 0.19 0.27 0.40 0.54 0.68 0.76 0.78 0.79 0.79 0.80 0.79
1.30 1.23 1.19 1.13 1.06 0.99 0.95 0.94 0.91 0.86 0.77 0.68 0.58 0.54 0.52 0.46 0.35 0.32 0.30 0.21 0.17 0.13 0.12 0.11 0.12 0.12 0.13 0.15 0.17 0.22 0.25 0.26 0.29 0.38 0.51 0.64 0.76 0.83 0.88 0.92 0.95 0.94 0.91
1.21 1.18 1.19 1.15 1.11 1.09 1.11 1.08 1.03 0.95 0.88 0.80 0.71 0.61 0.56 0.51 0.45 0.43 0.44 0.35 0.27 0.20 0.16 0.15 0.15 0.17 0.20 0.23 0.29 0.39 0.41 0.43 0.44 0.51 0.65 0.77 0.80 0.80 0.79 0.84 0.96 1.05 1.05
1.19 1.18 1.19 1.17 1.15 1.12 1.09 1.08 1.07 1.03 0.98 0.92 0.83 0.72 0.62 0.55 0.53 0.53 0.56 0.60 0.56 0.43 0.33 0.30 0.29 0.32 0.36 0.41 0.51 0.59 0.55 0.61 0.63 0.68 0.80 0.93 0.88 0.77 0.70 0.72 0.79 0.87 0.89
1.19 1.17 1.15 1.09 1.04 1.02 1.00 0.98 0.97 0.94 0.92 0.89 0.82 0.78 0.71 0.64 0.62 0.63 0.67 0.75 0.87 0.84 0.67 0.53 0.51 0.53 0.56 0.60 0.68 0.66 0.61 0.73 0.77 0.77 0.81 0.80 0.71 0.63 0.60 0.61 0.63 0.65 0.65
0.96 1.02 1.05 1.03 0.98 0.94 0.92 0.91 0.86 0.82 0.81 0.76 0.73 0.74 0.73 0.70 0.71 0.71 0.75 0.79 0.87 0.95 0.89 0.67 0.59 0.62 0.68 0.72 0.78 0.69 0.64 0.74 0.71 0.70 0.69 0.64 0.57 0.52 0.49 0.46 0.45 0.46 0.47
0.77 0.83 0.92 0.98 0.95 0.92 0.88 0.84 0.79 0.74 0.71 0.68 0.66 0.67 0.67 0.65 0.69 0.71 0.73 0.78 0.86 0.95 1.01 0.88 0.76 0.76 0.77 0.74 0.70 0.59 0.53 0.52 0.50 0.55 0.51 0.46 0.41 0.38 0.35 0.34 0.35 0.37 0.38
0.71 0.71 0.71 0.74 0.78 0.80 0.81 0.80 0.74 0.69 0.64 0.61 0.59 0.60 0.60 0.60 0.63 0.66 0.71 0.76 0.82 0.88 0.91 0.85 0.74 0.67 0.60 0.52 0.46 0.41 0.35 0.31 0.29 0.36 0.33 0.29 0.26 0.22 0.20 0.20 0.22 0.24 0.24
0.55 0.60 0.61 0.60 0.59 0.58 0.60 0.64 0.68 0.68 0.65 0.61 0.60 0.62 0.61 0.62 0.64 0.65 0.69 0.73 0.74 0.73 0.70 0.63 0.54 0.46 0.40 0.35 0.31 0.26 0.21 0.18 0.16 0.20 0.19 0.15 0.13 0.11 0.10 0.11 0.12 0.13 0.13
0.32 0.36 0.40 0.43 0.46 0.48 0.47 0.48 0.51 0.58 0.63 0.65 0.65 0.67 0.69 0.74 0.78 0.79 0.78 0.74 0.69 0.62 0.55 0.49 0.43 0.36 0.30 0.25 0.22 0.20 0.17 0.13 0.11 0.10 0.10 0.08 0.07 0.06 0.05 0.04 0.04 0.06 0.07
0.14 0.18 0.23 0.28 0.32 0.36 0.41 0.44 0.45 0.48 0.52 0.59 0.66 0.72 0.76 0.85 0.86 0.78 0.68 0.59 0.51 0.47 0.44 0.43 0.37 0.30 0.24 0.20 0.17 0.14 0.13 0.12 0.10 0.08 0.06 0.05 0.04 0.03 0.02 0.02 0.03 0.04 0.05
0.11 0.13 0.16 0.21 0.25 0.30 0.42 0.42 0.39 0.42 0.51 0.56 0.60 0.64 0.69 0.72 0.64 0.59 0.52 0.45 0.42 0.44 0.43 0.35 0.27 0.21 0.15 0.13 0.12 0.14 0.15 0.17 0.14 0.07 0.05 0.04 0.03 0.03 0.02 0.01 0.02 0.03 0.06
0.18 0.19 0.20 0.22 0.25 0.34 0.45 0.46 0.50 0.48 0.51 0.54 0.54 0.51 0.48 0.46 0.45 0.37 0.37 0.37 0.36 0.34 0.29 0.24 0.21 0.16 0.13 0.12 0.16 0.20 0.19 0.18 0.13 0.06 0.07 0.06 0.04 0.03 0.02 0.01 0.02 0.02 0.04
0.36 0.36 0.36 0.36 0.39 0.47 0.54 0.51 0.50 0.46 0.46 0.44 0.39 0.35 0.32 0.31 0.30 0.30 0.30 0.31 0.25 0.20 0.17 0.15 0.13 0.13 0.14 0.16 0.19 0.23 0.22 0.20 0.14 0.11 0.09 0.07 0.05 0.03 0.02 0.01 0.02 0.02 0.03
0.63 0.62 0.62 0.60 0.57 0.55 0.51 0.41 0.35 0.31 0.30 0.27 0.24 0.22 0.21 0.20 0.23 0.27 0.26 0.25 0.22 0.18 0.17 0.18 0.18 0.17 0.18 0.20 0.20 0.21 0.23 0.26 0.21 0.12 0.08 0.06 0.04 0.03 0.02 0.01 0.02 0.03 0.03
0.61 0.58 0.56 0.51 0.45 0.38 0.32 0.23 0.18 0.15 0.15 0.14 0.13 0.14 0.16 0.17 0.23 0.28 0.24 0.22 0.20 0.18 0.18 0.18 0.18 0.17 0.16 0.17 0.20 0.17 0.17 0.29 0.29 0.18 0.07 0.07 0.08 0.09 0.12 0.03 0.01 0.02 0.02

GEFSMA_prec_meanprecacc_108.txt.gz
Total_Precipitation_Accumulation
0.29 0.29 0.28 0.25 0.21 0.19 0.16 0.12 0.09 0.07 0.04 0.02 0.01 0.01 0.00 0.00 0.00 0.00 0.00 0.00 0.00 0.01 0.02 0.04 0.08 0.11 0.12 0.15 0.16 0.17 0.13 0.07 0.04 0.03 0.01 0.01 0.01 0.01 0.01 0.01 0.01 0.01 0.02
0.34 0.33 0.30 0.29 0.25 0.22 0.20 0.17 0.14 0.12 0.09 0.06 0.03 0.01 0.01 0.00 0.00 0.00 0.00 0.00 0.00 0.00 0.01 0.04 0.08 0.12 0.17 0.21 0.23 0.23 0.19 0.15 0.12 0.09 0.06 0.04 0.03 0.02 0.02 0.01 0.01 0.01 0.01
0.36 0.35 0.33 0.28 0.26 0.26 0.25 0.24 0.21 0.18 0.13 0.10 0.06 0.04 0.03 0.01 0.00 0.00 0.00 0.00 0.00 0.00 0.01 0.02 0.06 0.11 0.17 0.22 0.26 0.28 0.27 0.22 0.15 0.11 0.10 0.08 0.07 0.05 0.04 0.03 0.03 0.02 0.02
0.44 0.41 0.36 0.32 0.30 0.31 0.31 0.28 0.23 0.20 0.16 0.12 0.09 0.06 0.05 0.03 0.01 0.01 0.01 0.00 0.00 0.00 0.00 0.01 0.04 0.08 0.13 0.15 0.21 0.28 0.31 0.26 0.17 0.12 0.11 0.10 0.09 0.08 0.07 0.06 0.05 0.03 0.03
0.51 0.49 0.43 0.39 0.37 0.33 0.33 0.32 0.26 0.21 0.18 0.15 0.13 0.11 0.08 0.05 0.03 0.02 0.01 0.01 0.01 0.01 0.01 0.01 0.01 0.03 0.04 0.07 0.12 0.21 0.30 0.30 0.22 0.17 0.15 0.14 0.13 0.11 0.10 0.10 0.09 0.08 0.07
0.62 0.56 0.49 0.49 0.47 0.41 0.35 0.33 0.32 0.27 0.22 0.19 0.16 0.11 0.08 0.06 0.04 0.02 0.02 0.02 0.02 0.02 0.02 0.02 0.01 0.02 0.02 0.04 0.07 0.12 0.20 0.25 0.24 0.21 0.19 0.19 0.19 0.18 0.17 0.17 0.17 0.16 0.15
0.78 0.75 0.66 0.60 0.58 0.51 0.44 0.44 0.46 0.41 0.35 0.32 0.25 0.15 0.09 0.06 0.04 0.03 0.03 0.03 0.03 0.03 0.03 0.03 0.03 0.03 0.03 0.03 0.04 0.08 0.12 0.18 0.24 0.26 0.25 0.24 0.23 0.23 0.24 0.26 0.26 0.26 0.24
1.00 0.96 0.90 0.85 0.80 0.71 0.62 0.57 0.56 0.50 0.46 0.46 0.40 0.32 0.18 0.10 0.07 0.05 0.05 0.04 0.04 0.04 0.04 0.06 0.05 0.04 0.03 0.03 0.03 0.04 0.07 0.13 0.22 0.30 0.32 0.31 0.29 0.29 0.31 0.33 0.36 0.36 0.34
1.23 1.14 1.11 1.11 1.05 0.92 0.80 0.74 0.72 0.66 0.61 0.58 0.52 0.48 0.32 0.18 0.12 0.08 0.06 0.05 0.04 0.04 0.05 0.06 0.06 0.05 0.04 0.04 0.04 0.05 0.07 0.09 0.17 0.29 0.37 0.39 0.36 0.37 0.40 0.43 0.47 0.49 0.48
1.37 1.34 1.31 1.27 1.23 1.16 1.00 0.92 0.89 0.84 0.77 0.69 0.60 0.49 0.42 0.32 0.26 0.16 0.09 0.07 0.07 0.05 0.06 0.07 0.07 0.07 0.07 0.07 0.07 0.09 0.10 0.10 0.16 0.28 0.41 0.52 0.56 0.56 0.59 0.61 0.64 0.68 0.68
1.37 1.36 1.34 1.29 1.20 1.15 1.11 1.07 1.00 0.94 0.84 0.74 0.66 0.60 0.55 0.43 0.33 0.29 0.19 0.11 0.10 0.09 0.09 0.10 0.10 0.11 0.11 0.11 0.11 0.13 0.16 0.16 0.21 0.30 0.44 0.59 0.73 0.80 0.83 0.83 0.82 0.83 0.82
1.42 1.38 1.36 1.28 1.19 1.11 1.06 1.06 1.05 0.99 0.91 0.82 0.73 0.68 0.64 0.56 0.43 0.39 0.35 0.25 0.20 0.15 0.13 0.13 0.14 0.14 0.15 0.16 0.18 0.24 0.27 0.28 0.32 0.41 0.55 0.69 0.82 0.90 0.95 0.98 1.01 0.99 0.95
1.33 1.31 1.33 1.29 1.24 1.20 1.21 1.18 1.15 1.07 1.01 0.93 0.84 0.74 0.69 0.63 0.56 0.54 0.54 0.43 0.32 0.24 0.20 0.18 0.18 0.19 0.22 0.25 0.30 0.41 0.43 0.45 0.47 0.53 0.68 0.82 0.86 0.87 0.86 0.92 1.05 1.12 1.10
1.30 1.28 1.28 1.26 1.25 1.22 1.18 1.18 1.17 1.14 1.10 1.04 0.95 0.86 0.76 0.68 0.65 0.66 0.68 0.71 0.65 0.50 0.38 0.33 0.31 0.34 0.38 0.43 0.53 0.62 0.57 0.64 0.65 0.70 0.83 0.97 0.92 0.81 0.75 0.77 0.84 0.93 0.95
1.27 1.25 1.23 1.17 1.13 1.11 1.09 1.09 1.08 1.05 1.04 1.02 0.96 0.92 0.85 0.77 0.75 0.77 0.81 0.89 1.01 0.95 0.74 0.56 0.54 0.55 0.59 0.63 0.71 0.68 0.63 0.75 0.79 0.80 0.84 0.84 0.75 0.67 0.64 0.65 0.67 0.69 0.68
1.02 1.09 1.12 1.10 1.06 1.04 1.02 1.01 0.97 0.93 0.92 0.88 0.84 0.86 0.86 0.83 0.84 0.86 0.90 0.95 1.03 1.10 0.99 0.72 0.62 0.65 0.72 0.76 0.81 0.71 0.66 0.76 0.73 0.72 0.71 0.67 0.60 0.56 0.53 0.50 0.48 0.48 0.49
0.82 0.87 0.97 1.03 1.01 0.98 0.96 0.94 0.89 0.85 0.82 0.80 0.78 0.79 0.80 0.78 0.82 0.85 0.88 0.93 1.01 1.12 1.17 0.97 0.81 0.80 0.82 0.80 0.75 0.64 0.56 0.55 0.53 0.58 0.54 0.49 0.44 0.42 0.39 0.38 0.39 0.41 0.41
0.74 0.74 0.74 0.77 0.82 0.85 0.87 0.87 0.84 0.79 0.76 0.75 0.74 0.75 0.75 0.75 0.79 0.83 0.88 0.94 0.99 1.04 1.08 1.00 0.84 0.75 0.68 0.60 0.54 0.47 0.40 0.36 0.33 0.39 0.37 0.33 0.30 0.27 0.25 0.25 0.26 0.27 0.28
0.58 0.63 0.63 0.62 0.61 0.61 0.64 0.70 0.74 0.76 0.74 0.73 0.74 0.77 0.79 0.81 0.84 0.85 0.90 0.93 0.93 0.90 0.88 0.81 0.68 0.56 0.49 0.43 0.41 0.35 0.28 0.24 0.21 0.24 0.24 0.20 0.18 0.16 0.15 0.16 0.17 0.17 0.16
0.33 0.37 0.41 0.45 0.48 0.50 0.50 0.51 0.56 0.64 0.70 0.74 0.75 0.78 0.83 0.90 0.96 0.98 0.98 0.95 0.88 0.82 0.75 0.69 0.61 0.51 0.42 0.34 0.32 0.30 0.26 0.20 0.17 0.15 0.16 0.14 0.12 0.11 0.10 0.09 0.09 0.10 0.10
0.15 0.19 0.24 0.29 0.33 0.37 0.42 0.46 0.47 0.51 0.56 0.64 0.73 0.80 0.85 0.95 0.97 0.92 0.83 0.75 0.69 0.65 0.63 0.61 0.55 0.45 0.37 0.31 0.28 0.23 0.21 0.19 0.16 0.13 0.12 0.10 0.08 0.07 0.06 0.06 0.07 0.08 0.09
0.11 0.13 0.17 0.21 0.26 0.31 0.43 0.44 0.41 0.44 0.53 0.59 0.63 0.69 0.75 0.79 0.72 0.68 0.63 0.58 0.58 0.61 0.59 0.51 0.43 0.34 0.25 0.20 0.20 0.22 0.24 0.25 0.22 0.12 0.10 0.10 0.08 0.08 0.06 0.05 0.06 0.08 0.10
0.18 0.19 0.20 0.22 0.26 0.34 0.45 0.46 0.51 0.48 0.52 0.56 0.56 0.54 0.51 0.51 0.52 0.44 0.45 0.45 0.45 0.46 0.42 0.37 0.33 0.27 0.22 0.18 0.22 0.28 0.27 0.25 0.18 0.11 0.12 0.14 0.11 0.09 0.06 0.05 0.07 0.07 0.08
0.36 0.36 0.36 0.36 0.39 0.48 0.54 0.51 0.50 0.46 0.46 0.44 0.40 0.36 0.34 0.33 0.33 0.35 0.37 0.39 0.33 0.28 0.26 0.23 0.21 0.20 0.20 0.22 0.25 0.30 0.29 0.29 0.23 0.18 0.17 0.18 0.14 0.10 0.07 0.06 0.08 0.08 0.08
0.63 0.62 0.62 0.60 0.57 0.55 0.51 0.41 0.35 0.31 0.30 0.28 0.25 0.23 0.22 0.21 0.25 0.29 0.30 0.30 0.29 0.26 0.26 0.26 0.25 0.24 0.25 0.27 0.27 0.29 0.34 0.40 0.35 0.23 0.17 0.15 0.13 0.10 0.09 0.08 0.09 0.10 0.09
0.61 0.58 0.56 0.51 0.45 0.38 0.32 0.23 0.18 0.15 0.15 0.14 0.13 0.14 0.17 0.18 0.24 0.30 0.27 0.26 0.25 0.24 0.26 0.27 0.27 0.26 0.24 0.25 0.28 0.24 0.25 0.39 0.40 0.28 0.14 0.14 0.15 0.17 0.22 0.11 0.08 0.09 0.09

GEFSMA_prec_meanprecacc_114.txt.gz
Total_Precipitation_Accumulation
0.32 0.33 0.31 0.30 0.26 0.25 0.22 0.17 0.13 0.10 0.07 0.04 0.03 0.02 0.01 0.00 0.00 0.00 0.00 0.00 0.00 0.01 0.03 0.04 0.08 0.12 0.13 0.15 0.17 0.17 0.14 0.08 0.05 0.03 0.01 0.01 0.01 0.01 0.01 0.01 0.01 0.01 0.02
0.38 0.37 0.35 0.36 0.32 0.31 0.29 0.26 0.22 0.20 0.15 0.11 0.07 0.05 0.03 0.02 0.01 0.01 0.01 0.00 0.00 0.00 0.01 0.04 0.08 0.12 0.17 0.22 0.23 0.24 0.20 0.16 0.13 0.09 0.06 0.04 0.03 0.02 0.02 0.02 0.01 0.01 0.01
0.41 0.40 0.38 0.34 0.33 0.35 0.36 0.38 0.36 0.32 0.25 0.20 0.15 0.11 0.08 0.06 0.04 0.03 0.02 0.01 0.00 0.00 0.01 0.03 0.06 0.11 0.18 0.23 0.28 0.30 0.29 0.24 0.16 0.12 0.10 0.09 0.07 0.05 0.04 0.04 0.03 0.02 0.02
0.51 0.50 0.45 0.39 0.37 0.40 0.41 0.39 0.37 0.36 0.31 0.26 0.22 0.19 0.15 0.11 0.08 0.07 0.05 0.03 0.01 0.01 0.01 0.02 0.04 0.08 0.14 0.17 0.23 0.31 0.34 0.28 0.19 0.14 0.13 0.11 0.10 0.09 0.07 0.06 0.06 0.04 0.04
0.58 0.58 0.52 0.48 0.46 0.44 0.43 0.42 0.37 0.33 0.31 0.28 0.28 0.25 0.21 0.16 0.11 0.09 0.08 0.06 0.04 0.02 0.02 0.02 0.02 0.03 0.05 0.08 0.14 0.25 0.34 0.34 0.25 0.19 0.16 0.15 0.14 0.12 0.11 0.10 0.10 0.08 0.07
0.69 0.65 0.60 0.60 0.58 0.52 0.46 0.45 0.43 0.39 0.33 0.33 0.32 0.27 0.23 0.19 0.15 0.11 0.09 0.09 0.07 0.05 0.03 0.02 0.02 0.02 0.02 0.05 0.08 0.14 0.23 0.28 0.28 0.24 0.21 0.20 0.20 0.19 0.17 0.17 0.17 0.17 0.15
0.86 0.85 0.76 0.73 0.71 0.63 0.55 0.56 0.60 0.55 0.48 0.46 0.41 0.29 0.21 0.18 0.15 0.12 0.11 0.11 0.10 0.09 0.06 0.05 0.04 0.03 0.03 0.04 0.05 0.09 0.14 0.21 0.27 0.30 0.28 0.26 0.25 0.25 0.25 0.26 0.27 0.26 0.24
1.07 1.04 1.01 0.98 0.94 0.84 0.73 0.69 0.71 0.68 0.62 0.61 0.55 0.46 0.28 0.18 0.13 0.12 0.12 0.11 0.10 0.09 0.09 0.09 0.07 0.05 0.04 0.04 0.04 0.05 0.08 0.16 0.25 0.33 0.35 0.33 0.32 0.31 0.33 0.35 0.37 0.37 0.36
1.29 1.20 1.18 1.21 1.17 1.05 0.93 0.86 0.84 0.80 0.77 0.74 0.67 0.63 0.44 0.26 0.18 0.12 0.10 0.10 0.10 0.11 0.11 0.11 0.09 0.08 0.06 0.05 0.05 0.06 0.08 0.11 0.20 0.33 0.41 0.42 0.40 0.40 0.43 0.47 0.50 0.51 0.50
1.42 1.39 1.36 1.33 1.30 1.25 1.11 1.03 1.00 0.97 0.91 0.83 0.75 0.62 0.54 0.41 0.33 0.21 0.12 0.11 0.11 0.11 0.12 0.13 0.12 0.11 0.10 0.09 0.09 0.10 0.11 0.12 0.18 0.32 0.47 0.57 0.61 0.61 0.63 0.66 0.68 0.73 0.72
1.42 1.40 1.39 1.33 1.25 1.21 1.20 1.17 1.11 1.05 0.95 0.85 0.77 0.71 0.66 0.53 0.41 0.37 0.25 0.15 0.13 0.12 0.13 0.14 0.15 0.15 0.15 0.14 0.14 0.16 0.19 0.19 0.23 0.34 0.50 0.67 0.81 0.89 0.92 0.91 0.88 0.89 0.88
1.45 1.41 1.40 1.31 1.22 1.15 1.12 1.12 1.12 1.07 1.00 0.93 0.85 0.80 0.76 0.67 0.53 0.48 0.44 0.32 0.25 0.19 0.16 0.17 0.18 0.19 0.20 0.21 0.23 0.29 0.32 0.33 0.36 0.45 0.61 0.78 0.91 1.01 1.06 1.10 1.12 1.08 1.02
1.36 1.34 1.38 1.35 1.30 1.25 1.26 1.24 1.22 1.14 1.10 1.02 0.94 0.86 0.81 0.75 0.67 0.66 0.65 0.52 0.40 0.30 0.24 0.21 0.21 0.24 0.28 0.31 0.36 0.48 0.49 0.51 0.53 0.60 0.75 0.91 0.95 0.96 0.96 1.04 1.18 1.25 1.21
1.33 1.31 1.31 1.32 1.32 1.28 1.24 1.24 1.24 1.21 1.18 1.13 1.04 0.95 0.85 0.77 0.75 0.77 0.80 0.83 0.77 0.57 0.43 0.37 0.34 0.38 0.43 0.50 0.59 0.69 0.63 0.71 0.72 0.79 0.91 1.05 1.01 0.89 0.81 0.84 0.93 1.05 1.07
1.30 1.28 1.27 1.21 1.18 1.15 1.13 1.13 1.13 1.10 1.09 1.08 1.03 0.99 0.93 0.86 0.85 0.88 0.93 1.03 1.15 1.07 0.80 0.60 0.57 0.59 0.64 0.69 0.79 0.76 0.70 0.83 0.87 0.88 0.93 0.92 0.83 0.74 0.70 0.70 0.72 0.75 0.77
1.05 1.11 1.15 1.13 1.09 1.07 1.05 1.04 1.00 0.97 0.97 0.92 0.90 0.92 0.93 0.91 0.92 0.95 1.00 1.07 1.16 1.23 1.09 0.77 0.65 0.68 0.77 0.82 0.89 0.80 0.74 0.85 0.83 0.81 0.79 0.74 0.68 0.63 0.59 0.56 0.53 0.53 0.54
0.84 0.90 0.99 1.06 1.03 1.01 0.99 0.96 0.91 0.87 0.86 0.84 0.82 0.84 0.85 0.84 0.89 0.91 0.95 1.02 1.11 1.23 1.27 1.03 0.86 0.84 0.88 0.86 0.83 0.72 0.65 0.64 0.62 0.68 0.62 0.56 0.51 0.49 0.47 0.45 0.45 0.46 0.46
0.75 0.75 0.75 0.78 0.84 0.86 0.88 0.88 0.85 0.81 0.78 0.77 0.77 0.78 0.79 0.81 0.87 0.91 0.97 1.04 1.09 1.15 1.19 1.09 0.91 0.81 0.75 0.68 0.63 0.58 0.51 0.47 0.44 0.51 0.48 0.43 0.39 0.35 0.32 0.33 0.34 0.34 0.34
0.58 0.63 0.63 0.62 0.61 0.61 0.64 0.70 0.75 0.76 0.75 0.74 0.76 0.80 0.82 0.85 0.89 0.92 0.97 1.03 1.04 1.01 0.99 0.92 0.78 0.65 0.58 0.53 0.53 0.49 0.42 0.38 0.34 0.38 0.38 0.33 0.29 0.25 0.22 0.23 0.24 0.24 0.23
0.33 0.37 0.42 0.45 0.48 0.50 0.50 0.51 0.56 0.64 0.71 0.75 0.76 0.80 0.85 0.94 1.01 1.04 1.04 1.03 0.98 0.93 0.86 0.80 0.71 0.61 0.51 0.44 0.44 0.44 0.40 0.34 0.30 0.27 0.30 0.27 0.24 0.21 0.18 0.16 0.15 0.15 0.16
0.15 0.19 0.24 0.29 0.33 0.37 0.42 0.46 0.47 0.52 0.57 0.64 0.74 0.81 0.86 0.97 1.00 0.94 0.86 0.79 0.74 0.72 0.71 0.70 0.64 0.54 0.46 0.41 0.39 0.34 0.33 0.32 0.29 0.25 0.25 0.24 0.21 0.18 0.15 0.15 0.15 0.15 0.16
0.11 0.13 0.17 0.22 0.27 0.31 0.43 0.44 0.41 0.44 0.53 0.59 0.64 0.69 0.75 0.80 0.73 0.69 0.64 0.60 0.60 0.64 0.63 0.57 0.49 0.41 0.33 0.28 0.27 0.31 0.33 0.38 0.37 0.25 0.22 0.22 0.20 0.19 0.16 0.13 0.15 0.16 0.17
0.18 0.19 0.20 0.22 0.26 0.34 0.45 0.46 0.51 0.49 0.53 0.57 0.56 0.54 0.52 0.51 0.52 0.45 0.45 0.45 0.46 0.47 0.44 0.39 0.37 0.32 0.28 0.25 0.30 0.36 0.36 0.35 0.27 0.18 0.22 0.25 0.22 0.20 0.15 0.14 0.17 0.15 0.17
0.36 0.36 0.36 0.36 0.39 0.48 0.54 0.51 0.50 0.46 0.46 0.45 0.41 0.36 0.34 0.33 0.34 0.36 0.38 0.40 0.34 0.29 0.27 0.25 0.23 0.22 0.23 0.27 0.32 0.38 0.38 0.37 0.31 0.26 0.27 0.31 0.25 0.20 0.15 0.15 0.18 0.17 0.17
0.63 0.62 0.62 0.60 0.57 0.55 0.51 0.41 0.35 0.31 0.30 0.28 0.25 0.23 0.22 0.21 0.25 0.30 0.30 0.31 0.29 0.27 0.26 0.26 0.26 0.25 0.27 0.30 0.32 0.36 0.42 0.50 0.46 0.34 0.27 0.26 0.23 0.20 0.18 0.18 0.19 0.22 0.20
0.61 0.58 0.56 0.51 0.45 0.38 0.32 0.23 0.18 0.15 0.15 0.14 0.14 0.14 0.17 0.18 0.24 0.30 0.27 0.26 0.26 0.24 0.26 0.28 0.27 0.26 0.25 0.26 0.30 0.28 0.31 0.47 0.49 0.37 0.21 0.21 0.23 0.26 0.34 0.23 0.19 0.21 0.22

GEFSMA_prec_meanprecacc_120.txt.gz
Total_Precipitation_Accumulation
0.34 0.34 0.33 0.32 0.28 0.27 0.25 0.21 0.18 0.15 0.12 0.11 0.09 0.08 0.06 0.04 0.02 0.01 0.01 0.01 0.01 0.02 0.03 0.06 0.10 0.13 0.14 0.16 0.18 0.18 0.15 0.09 0.06 0.04 0.02 0.01 0.01 0.01 0.01 0.01 0.01 0.02 0.03
0.41 0.40 0.37 0.37 0.34 0.34 0.32 0.30 0.27 0.25 0.22 0.19 0.15 0.11 0.09 0.07 0.04 0.02 0.02 0.02 0.01 0.01 0.02 0.05 0.10 0.15 0.19 0.23 0.24 0.25 0.21 0.17 0.14 0.10 0.07 0.05 0.04 0.03 0.02 0.02 0.02 0.01 0.01
0.45 0.45 0.42 0.37 0.35 0.38 0.40 0.42 0.41 0.38 0.32 0.28 0.23 0.20 0.17 0.13 0.10 0.07 0.05 0.03 0.02 0.02 0.02 0.04 0.09 0.14 0.21 0.26 0.30 0.32 0.30 0.25 0.18 0.14 0.12 0.10 0.08 0.07 0.05 0.04 0.03 0.03 0.02
0.56 0.56 0.52 0.45 0.43 0.46 0.47 0.46 0.45 0.44 0.39 0.33 0.29 0.28 0.26 0.23 0.18 0.15 0.12 0.08 0.06 0.04 0.04 0.05 0.08 0.13 0.19 0.22 0.28 0.35 0.38 0.32 0.22 0.17 0.15 0.14 0.12 0.11 0.10 0.08 0.07 0.05 0.05
0.62 0.62 0.57 0.54 0.54 0.51 0.50 0.50 0.45 0.43 0.41 0.40 0.38 0.35 0.31 0.27 0.24 0.22 0.19 0.16 0.12 0.10 0.09 0.08 0.07 0.07 0.10 0.14 0.20 0.31 0.41 0.40 0.31 0.24 0.20 0.18 0.16 0.14 0.13 0.12 0.12 0.10 0.08
0.72 0.68 0.63 0.66 0.65 0.60 0.53 0.51 0.50 0.49 0.45 0.46 0.45 0.40 0.36 0.32 0.28 0.25 0.23 0.22 0.22 0.20 0.18 0.15 0.12 0.10 0.08 0.11 0.14 0.21 0.30 0.37 0.36 0.32 0.28 0.26 0.24 0.22 0.20 0.20 0.20 0.19 0.17
0.88 0.87 0.79 0.76 0.77 0.69 0.63 0.66 0.71 0.66 0.60 0.59 0.54 0.41 0.33 0.31 0.30 0.27 0.24 0.21 0.19 0.19 0.17 0.16 0.15 0.12 0.11 0.11 0.12 0.16 0.22 0.29 0.35 0.39 0.37 0.34 0.32 0.29 0.30 0.31 0.31 0.29 0.27
1.07 1.05 1.03 1.01 0.98 0.89 0.79 0.77 0.81 0.79 0.75 0.76 0.71 0.61 0.41 0.29 0.25 0.23 0.23 0.20 0.18 0.16 0.15 0.15 0.14 0.12 0.11 0.10 0.11 0.13 0.17 0.25 0.33 0.41 0.45 0.42 0.40 0.38 0.39 0.42 0.44 0.43 0.39
1.30 1.22 1.20 1.24 1.20 1.10 0.98 0.93 0.92 0.90 0.90 0.89 0.82 0.80 0.59 0.37 0.27 0.22 0.18 0.16 0.17 0.17 0.16 0.16 0.15 0.14 0.13 0.12 0.11 0.13 0.14 0.18 0.29 0.42 0.51 0.52 0.49 0.48 0.50 0.54 0.57 0.58 0.55
1.43 1.41 1.38 1.35 1.33 1.28 1.16 1.11 1.10 1.07 1.02 0.96 0.90 0.77 0.67 0.53 0.44 0.31 0.20 0.17 0.16 0.16 0.17 0.18 0.18 0.17 0.17 0.17 0.16 0.16 0.17 0.17 0.24 0.40 0.57 0.69 0.71 0.71 0.73 0.75 0.76 0.80 0.78
1.46 1.43 1.42 1.36 1.27 1.23 1.22 1.20 1.17 1.13 1.03 0.95 0.88 0.82 0.77 0.63 0.50 0.45 0.31 0.20 0.18 0.16 0.17 0.18 0.19 0.20 0.22 0.23 0.23 0.25 0.27 0.26 0.30 0.41 0.59 0.79 0.94 1.01 1.04 1.03 1.00 1.00 0.98
1.51 1.46 1.44 1.35 1.25 1.17 1.13 1.14 1.15 1.11 1.06 0.99 0.92 0.87 0.84 0.76 0.61 0.56 0.51 0.37 0.30 0.23 0.20 0.20 0.22 0.23 0.26 0.30 0.33 0.42 0.43 0.42 0.44 0.54 0.71 0.90 1.06 1.15 1.20 1.24 1.27 1.24 1.17
1.38 1.37 1.41 1.38 1.33 1.27 1.28 1.26 1.24 1.18 1.14 1.08 1.00 0.93 0.88 0.81 0.73 0.72 0.73 0.59 0.46 0.34 0.28 0.25 0.25 0.29 0.33 0.39 0.44 0.60 0.62 0.65 0.65 0.70 0.87 1.05 1.11 1.12 1.13 1.19 1.34 1.42 1.39
1.34 1.32 1.33 1.34 1.34 1.29 1.26 1.26 1.26 1.24 1.22 1.18 1.09 1.00 0.91 0.82 0.81 0.83 0.87 0.90 0.84 0.64 0.48 0.41 0.39 0.43 0.50 0.57 0.69 0.81 0.74 0.84 0.86 0.91 1.03 1.19 1.15 1.04 0.98 1.01 1.10 1.22 1.24
1.32 1.29 1.28 1.23 1.21 1.18 1.15 1.15 1.14 1.12 1.11 1.10 1.06 1.03 0.97 0.90 0.91 0.94 0.99 1.09 1.21 1.12 0.85 0.64 0.62 0.64 0.70 0.75 0.86 0.83 0.77 0.93 0.98 0.99 1.03 1.02 0.94 0.87 0.84 0.85 0.87 0.91 0.93
1.06 1.12 1.16 1.14 1.10 1.08 1.06 1.06 1.02 0.98 0.98 0.94 0.91 0.94 0.95 0.93 0.95 0.98 1.04 1.11 1.21 1.28 1.14 0.81 0.70 0.72 0.81 0.87 0.95 0.86 0.80 0.94 0.91 0.90 0.90 0.85 0.78 0.74 0.71 0.69 0.67 0.68 0.69
0.86 0.90 1.00 1.07 1.05 1.02 1.00 0.98 0.94 0.90 0.88 0.86 0.84 0.85 0.87 0.86 0.91 0.93 0.97 1.05 1.15 1.28 1.32 1.07 0.90 0.88 0.91 0.90 0.87 0.77 0.70 0.70 0.69 0.76 0.72 0.67 0.63 0.61 0.58 0.57 0.57 0.58 0.58
0.77 0.76 0.76 0.79 0.85 0.88 0.89 0.90 0.88 0.83 0.80 0.79 0.78 0.79 0.80 0.82 0.88 0.92 0.99 1.06 1.12 1.18 1.22 1.12 0.93 0.84 0.78 0.71 0.66 0.61 0.55 0.52 0.50 0.59 0.57 0.52 0.50 0.47 0.45 0.45 0.47 0.47 0.46
0.60 0.64 0.64 0.63 0.62 0.63 0.65 0.70 0.76 0.78 0.76 0.75 0.77 0.81 0.83 0.86 0.90 0.93 0.99 1.04 1.05 1.03 1.01 0.95 0.80 0.67 0.60 0.55 0.55 0.52 0.45 0.42 0.40 0.45 0.47 0.43 0.40 0.37 0.35 0.35 0.37 0.38 0.37
0.34 0.37 0.42 0.45 0.48 0.50 0.50 0.52 0.56 0.65 0.71 0.75 0.76 0.80 0.86 0.94 1.01 1.04 1.05 1.03 0.99 0.94 0.89 0.84 0.76 0.66 0.56 0.49 0.48 0.49 0.45 0.39 0.35 0.33 0.38 0.37 0.36 0.35 0.31 0.28 0.26 0.26 0.28
0.15 0.19 0.24 0.29 0.33 0.37 0.42 0.46 0.47 0.52 0.57 0.65 0.74 0.81 0.87 0.97 1.00 0.95 0.86 0.80 0.74 0.73 0.73 0.73 0.68 0.59 0.51 0.46 0.44 0.39 0.38 0.37 0.34 0.30 0.31 0.30 0.29 0.27 0.26 0.26 0.25 0.25 0.25
0.11 0.13 0.17 0.22 0.27 0.31 0.43 0.44 0.41 0.44 0.53 0.59 0.64 0.69 0.76 0.80 0.74 0.70 0.65 0.60 0.61 0.64 0.64 0.58 0.51 0.44 0.36 0.32 0.31 0.35 0.39 0.44 0.43 0.30 0.28 0.29 0.27 0.28 0.25 0.23 0.26 0.27 0.27
0.18 0.19 0.20 0.22 0.26 0.34 0.45 0.46 0.51 0.49 0.53 0.57 0.57 0.55 0.52 0.52 0.53 0.45 0.46 0.46 0.46 0.48 0.45 0.40 0.38 0.33 0.29 0.27 0.32 0.38 0.39 0.39 0.32 0.24 0.28 0.32 0.28 0.27 0.22 0.22 0.27 0.25 0.27
0.36 0.36 0.36 0.36 0.39 0.48 0.54 0.51 0.50 0.46 0.46 0.45 0.41 0.36 0.34 0.33 0.34 0.36 0.38 0.40 0.34 0.29 0.27 0.25 0.23 0.22 0.24 0.27 0.33 0.40 0.40 0.39 0.33 0.29 0.31 0.36 0.31 0.25 0.21 0.21 0.26 0.26 0.28
0.63 0.62 0.62 0.60 0.57 0.55 0.51 0.41 0.35 0.31 0.30 0.28 0.25 0.23 0.22 0.21 0.25 0.30 0.31 0.31 0.29 0.27 0.26 0.27 0.27 0.26 0.28 0.30 0.33 0.37 0.44 0.52 0.48 0.35 0.30 0.31 0.28 0.25 0.24 0.24 0.26 0.31 0.32
0.61 0.58 0.56 0.51 0.45 0.38 0.32 0.23 0.18 0.15 0.15 0.14 0.14 0.14 0.17 0.18 0.24 0.30 0.28 0.26 0.26 0.25 0.26 0.28 0.27 0.26 0.25 0.26 0.30 0.28 0.32 0.49 0.51 0.39 0.23 0.25 0.28 0.33 0.43 0.31 0.28 0.32 0.35